Regional Weather Roundup
Issued by NWS

Home | Current Version | Previous Version | Text Only | Print | Product List | Glossary Off
Versions: 1 2 3 4 5 6 7 8 9 10 11 12 13 14 15 16 17 18 19 20 21 22 23 24 25 26 27 28 29 30 31 32 33 34 35 36 37 38 39 40 41 42 43 44 45 46 47 48 49 50

000
ASUS43 KLMK 230210
RWRKY
KENTUCKY REGIONAL WEATHER ROUNDUP
NATIONAL WEATHER SERVICE LOUISVILLE KY
1000 PM EDT FRI SEP 22 2017

NOTE "FAIR" INDICATES FEW OR NO CLOUDS BELOW 12,000 FEET
WITH NO SIGNIFICANT WEATHER AND/OR OBSTRUCTIONS TO VISIBILITY.

KYZ001>023-026-027-061>063-070>075-230300-
WESTERN AND SOUTH CENTRAL KENTUCKY

CITY           SKY/WX    TMP DP  RH WIND       PRES   REMARKS
PADUCAH        CLEAR     74  68  81 CALM      30.00R
HENDERSON      CLEAR     72  68  87 CALM      30.03R
OWENSBORO      CLEAR     77  68  73 CALM      30.03S
HOPKINSVILLE   NOT AVBL
BOWLING GREEN  CLEAR     74  69  85 CALM      30.03R
GLASGOW        CLEAR     71  68  89 CALM      30.04S
$$

KYZ024-025-028>034-038-045-046-053-230300-
NORTH CENTRAL KENTUCKY

CITY           SKY/WX    TMP DP  RH WIND       PRES   REMARKS
LOUISVILLE/SDF PTCLDY    82  67  60 E5        30.04R
LOUISVILLE/LOU CLEAR     74  70  87 CALM      30.05S
FORT KNOX      CLEAR     71  69  92 CALM      30.04R
$$

KYZ035>037-039>044-047>052-055>060-089>105-230300-
NORTHEAST KENTUCKY

CITY           SKY/WX    TMP DP  RH WIND       PRES   REMARKS
LEXINGTON      CLEAR     76  64  66 E5        30.08S
COVINGTON      CLEAR     76  68  76 CALM      30.07R
FRANKFORT      CLEAR     70  65  84 CALM      30.06R
$$

KYZ054-064>069-076>088-106>120-230300-
SOUTHEAST KENTUCKY

CITY           SKY/WX    TMP DP  RH WIND       PRES   REMARKS
JACKSON        PTCLDY    72  64  76 CALM      30.10R
LONDON         CLEAR     71  65  81 CALM      30.08S
SOMERSET       CLEAR     70  66  88 CALM      30.08S
MIDDLESBORO    CLEAR     71  67  87 CALM      30.09R
MONTICELLO     PTCLDY    69  67  93 N8        30.08R
$$




USA.gov is the U.S. government's official web portal to all federal, state and local government web resources and services.